Погода в Виноградовке

Россия / Хабаровский край     47°26′02″N   134°29′48″E
темп.,
°C
ветер,
м/с
пор.,
м/с
влажн.,
%
обл.,
%
осадки,
мм/ч
давл.,
гПа
погр.,
м
23 мая, пн
пн2301:00+7всв369139 0.0 1011128
04:00+5всв369421 0.0 1011105
07:00+7всв348470 0.0 1011158
10:00+14всв2259100 0.0 1010579
13:00+19сз2347100 0.0 10091123
16:00+22ююз34383 0.0 10061840
19:00+19ю475697 0.0 1007204
22:00+16юв476193 0.0 1005141
24 мая, вт
вт2401:00+19ю8184799 0.0 1004760
04:00+16ююз81762100 0.1 1004600
07:00+15ююз51473100 0.0 1004502
10:00+19ююз71062100 0.0 1004743
13:00+23юз5753100 0.0 10031593
16:00+17ссз81183100 0.6 1004732
19:00+12з2496100 6.3 1006394
22:00+11юз359585 7.0 1008161
25 мая, ср
ср2501:00+9юз369690 0.0 1009120
04:00+7юз239695 0.0 101066
07:00+8ю1190100 0.0 1011181
10:00+8св4588100 0.0 1012393
13:00+10ссв4478100 0.0 1012535
16:00+15св346015 0.0 10111140
19:00+14св23676 0.0 1011998
22:00+9юв22830 0.0 101218
26 мая, чт
чт2601:00+8юв11860 0.0 101210
04:00+7юв11870 0.0 101110
07:00+10ю12780 0.0 101184
10:00+17ссз015659 0.0 1010533
13:00+20с114642 0.0 1008947
16:00+22с11429 0.0 10061115
19:00+21сз00565 0.0 100521
22:00+14юв226771 0.0 100613
27 мая, пт
пт2701:00+13ююв2271100 0.0 100612
04:00+12ююз226788 0.0 100512
07:00+15юв116942 0.0 100559
10:00+20зюз1262100 0.0 1004632
13:00+22в2258100 0.0 1004823
16:00+22ссв2260100 0.0 1002232
19:00+21всв4770100 0.2 1001241
22:00+14в459498 3.2 100476